Weather History for Bridgeport, CT

Change the Weather History Date:

Saturday, February 9, 2013

  Actual Average Record
Temperature  
Mean Temperature 23 °F 32 °F  
Max Temperature 28 °F 39 °F 58 °F (1949)
Min Temperature 18 °F 24 °F 5 °F (1963)
Degree Days  
Heating Degree Days 42 34  
Month to date heating degree days 335 307  
Since 1 July heating degree days 3021 3283  
Cooling Degree Days 0 0  
Month to date cooling degree days 0 0  
Year to date cooling degree days 0 0  
Moisture  
Dew Point 15 °F    
Average Humidity 69    
Maximum Humidity 100    
Minimum Humidity 38    
Precipitation  
Precipitation 0.87 in 0.09 in 2.17 in (1969)
Month to date precipitation 2.64 0.81  
Year to date precipitation 4.64 3.91  
Snow  
Snow 11.50 in 0.30 in 15.90 in (1969)
Month to date snowfall 30.3 2.5  
Since 1 July snowfall 51.2 16.0  
Snow Depth 30.00 in    
Sea Level Pressure  
Sea Level Pressure 29.90 in    
Wind  
Wind Speed 18 mph (NW)    
Max Wind Speed 35 mph    
Max Gust Speed 46 mph    
Visibility 4 miles    
Events Fog , Snow    
T = Trace of Precipitation, MM = Missing Value Source: NWS Daily Summary

Daily Weather History Graph

Daily Weather History Graph

Search for Another Location

Airport:

Trip Planner

Search our weather history database for the weather conditions in past years. The results will help you decide how hot, cold, wet, or windy it might be!

Date:

Astronomy

Feb. 09, 2013 Rise Set
Actual Time 6:54 AM EST 5:19 PM EST
Civil Twilight 6:25 AM EST 5:48 PM EST
Nautical Twilight 5:53 AM EST 6:20 PM EST
Astronomical Twilight 5:21 AM EST 6:52 PM EST
Moon 6:04 AM EST (2/9) 4:59 PM EST (2/9)
Length of Visible Light 11h 22m
Length of Day
10h 25m
Waning Crescent, 0% of the Moon is Illuminated
Feb 9
Waning Crescent
Feb 10
New
Feb 17
First Quarter
Feb 25
Full
Mar 4
Last Quarter

Hourly Weather History & Observations

Time (EST) Temp. Windchill Dew Point Humidity Pressure Visibility Wind Dir Wind Speed Gust Speed Precip Events Conditions
12:52 AM 24.1 °F 9.4 °F 24.1 °F 100% 29.70 in 0.2 mi NNW 20.7 mph 28.8 mph 0.30 in Fog Light Freezing Fog
1:52 AM 24.1 °F 10.1 °F 24.1 °F 100% 29.70 in 0.5 mi NNW 18.4 mph 28.8 mph 0.22 in Fog Light Freezing Fog
2:01 AM 24.8 °F 11.9 °F 24.8 °F 100% 29.71 in 0.5 mi NNW 16.1 mph 24.2 mph 0.06 in Fog Light Freezing Fog
2:41 AM 24.8 °F 10.7 °F 24.8 °F 100% 29.71 in 0.8 mi NNW 19.6 mph 25.3 mph 0.58 in   Mist
2:52 AM 25.0 °F 13.1 °F 25.0 °F 100% 29.72 in 0.8 mi NW 13.8 mph 23.0 mph 0.61 in   Mist
3:14 AM 24.8 °F 13.4 °F 24.8 °F 100% 29.72 in 1.0 mi NW 12.7 mph 25.3 mph 0.01 in   Mist
3:21 AM 24.8 °F 11.5 °F 24.8 °F 100% 29.72 in 0.8 mi NW 17.3 mph 27.6 mph 0.02 in Snow Light Snow
3:34 AM 24.8 °F 11.9 °F 24.8 °F 100% 29.72 in 1.0 mi NW 16.1 mph 25.3 mph 0.02 in Snow Light Snow
3:52 AM 25.0 °F 12.6 °F 24.1 °F 96% 29.73 in 1.2 mi NW 15.0 mph 27.6 mph 0.04 in Snow Light Snow
4:52 AM 26.1 °F 12.7 °F 24.1 °F 92% 29.74 in 1.2 mi NNW 18.4 mph 25.3 mph 0.57 in Snow Light Snow
5:00 AM 26.6 °F 15.2 °F 24.8 °F 93% 29.74 in 1.0 mi NNW 13.8 mph 25.3 mph 0.08 in Snow Light Snow
5:11 AM 26.6 °F 15.7 °F 24.8 °F 93% 29.74 in 1.2 mi NNW 12.7 mph 33.4 mph 0.14 in Snow Light Snow
5:52 AM 26.1 °F 12.7 °F 23.0 °F 88% 29.75 in 2.0 mi NNW 18.4 mph 28.8 mph 0.21 in Snow Light Snow
6:04 AM 26.6 °F 13.8 °F 21.2 °F 80% 29.77 in 4.0 mi NNW 17.3 mph 29.9 mph 0.00 in Snow Light Snow
6:15 AM 26.6 °F 13.4 °F 19.4 °F 74% 29.76 in 2.0 mi NNW 18.4 mph 28.8 mph 0.00 in Snow Light Snow
6:37 AM 24.8 °F 11.1 °F 19.4 °F 80% 29.77 in 4.0 mi NNW 18.4 mph 33.4 mph 0.00 in Snow Light Snow
6:52 AM 26.1 °F 11.6 °F 19.0 °F 75% 29.79 in 5.0 mi NW 21.9 mph 33.4 mph 0.00 in Snow Light Snow
7:52 AM 26.1 °F 12.3 °F 18.0 °F 71% 29.82 in 3.0 mi NNW 19.6 mph 31.1 mph 0.22 in Snow Light Snow
8:41 AM 24.8 °F 8.4 °F 17.6 °F 74% 29.84 in 2.5 mi NNW 27.6 mph 40.3 mph 0.12 in   Mostly Cloudy
8:49 AM 24.8 °F 8.7 °F 17.6 °F 74% 29.84 in 1.8 mi NW 26.5 mph 40.3 mph 0.12 in   Mostly Cloudy
8:52 AM 25.0 °F 9.5 °F 17.1 °F 72% 29.85 in 1.8 mi NNW 24.2 mph 41.4 mph 0.12 in Snow Blowing Snow
8:56 AM 24.8 °F 8.7 °F 17.6 °F 74% 29.85 in 2.0 mi NNW 26.5 mph 41.4 mph N/A Snow Blowing Snow
9:19 AM 24.8 °F 9.0 °F 17.6 °F 74% 29.87 in 4.0 mi NNW 25.3 mph 40.3 mph 0.15 in   Partly Cloudy
9:49 AM 24.8 °F 9.3 °F 17.6 °F 74% 29.87 in 2.5 mi NNW 24.2 mph 36.8 mph 0.36 in Snow Light Snow
9:52 AM 25.0 °F 11.3 °F 16.0 °F 69% 29.88 in 3.0 mi NNW 18.4 mph 36.8 mph 0.36 in Snow Light Snow
10:07 AM 24.8 °F 10.7 °F 17.6 °F 74% 29.89 in 2.0 mi NNW 19.6 mph 38.0 mph 0.07 in Snow Light Snow
10:18 AM 26.6 °F 13.4 °F 17.6 °F 69% 29.88 in 3.0 mi NNW 18.4 mph 34.5 mph 0.51 in   Scattered Clouds
10:40 AM 24.8 °F 7.9 °F 15.8 °F 69% 29.89 in 1.8 mi NNW 29.9 mph 46.0 mph 0.88 in   Scattered Clouds
10:47 AM 24.8 °F 7.9 °F 15.8 °F 69% 29.89 in 0.8 mi NNW 29.9 mph 46.0 mph 0.88 in Snow Light Snow
10:52 AM 24.1 °F 7.1 °F 15.1 °F 69% 29.89 in 0.8 mi NW 28.8 mph 46.0 mph 0.88 in Snow Light Snow
11:01 AM 24.8 °F 9.3 °F 15.8 °F 69% 29.89 in 1.2 mi NNW 24.2 mph 43.7 mph 0.01 in Snow Blowing Snow
11:17 AM 24.8 °F 11.5 °F 15.8 °F 69% 29.89 in 3.0 mi NW 17.3 mph 36.8 mph 0.04 in   Overcast
11:39 AM 24.8 °F 8.4 °F 14.0 °F 64% 29.91 in 1.8 mi NNW 27.6 mph 40.3 mph 0.15 in   Overcast
11:45 AM 24.8 °F 9.6 °F 14.0 °F 64% 29.91 in 3.0 mi NW 23.0 mph 40.3 mph 0.15 in   Overcast
11:52 AM 25.0 °F 8.9 °F 14.0 °F 63% 29.92 in 6.0 mi NNW 26.5 mph 35.7 mph 0.22 in   Overcast
12:04 PM 24.8 °F 11.1 °F 14.0 °F 64% 29.93 in 0.5 mi NW 18.4 mph 29.9 mph 0.25 in   Mostly Cloudy
12:14 PM 24.8 °F 10.0 °F 14.0 °F 64% 29.93 in 1.2 mi NW 21.9 mph 38.0 mph 0.47 in   Unknown
12:22 PM 24.8 °F 8.7 °F 14.0 °F 64% 29.94 in 2.5 mi NNW 26.5 mph 42.6 mph 0.63 in   Unknown
12:34 PM 24.8 °F 9.0 °F 12.2 °F 59% 29.93 in 1.8 mi NNW 25.3 mph 40.3 mph 1.13 in Snow Blowing Snow
12:39 PM 26.6 °F 10.8 °F 12.2 °F 55% 29.93 in 3.0 mi NNW 27.6 mph 39.1 mph 1.13 in Snow Blowing Snow
12:52 PM 26.1 °F 14.0 °F 10.9 °F 53% 29.94 in 6.0 mi NW 15.0 mph 33.4 mph 1.14 in   Unknown
1:26 PM 26.6 °F 11.4 °F 8.6 °F 47% 29.95 in 1.8 mi NW 25.3 mph 39.1 mph 0.00 in Snow Light Snow
1:42 PM 26.6 °F 12.0 °F 10.4 °F 51% 29.95 in 3.0 mi NW 23.0 mph 36.8 mph 0.00 in   Unknown
1:52 PM 27.0 °F 12.5 °F 9.0 °F 47% 29.96 in 2.0 mi NW 23.0 mph 41.4 mph 0.00 in Snow Light Snow
2:06 PM 28.4 °F 15.4 °F 8.6 °F 43% 29.96 in 6.0 mi NNW 19.6 mph 31.1 mph 0.00 in   Unknown
2:52 PM 27.0 °F 14.7 °F 8.1 °F 45% 30.01 in 5.0 mi NNW 16.1 mph 33.4 mph 0.00 in   Unknown
3:52 PM 26.6 °F 13.4 °F 6.8 °F 43% 30.04 in 3.0 mi NNW 18.4 mph 40.3 mph N/A   Clear
4:52 PM 26.1 °F 11.0 °F 5.0 °F 41% 30.08 in 9.0 mi NW 24.2 mph 32.2 mph 0.00 in   Clear
5:52 PM 25.0 °F 13.6 °F 3.9 °F 41% 30.13 in 9.0 mi NNW 12.7 mph 24.2 mph 0.00 in   Clear
6:52 PM 24.1 °F 11.5 °F 3.9 °F 42% 30.17 in 10.0 mi NW 15.0 mph 23.0 mph N/A   Clear
7:52 PM 23.0 °F 13.1 °F 3.9 °F 44% 30.19 in 10.0 mi NNW 9.2 mph 19.6 mph N/A   Clear
8:52 PM 23.0 °F 13.1 °F 3.9 °F 44% 30.22 in 10.0 mi NW 9.2 mph 18.4 mph N/A   Clear
9:52 PM 19.9 °F 7.3 °F 3.9 °F 50% 30.26 in 10.0 mi WNW 12.7 mph 17.3 mph N/A   Clear
10:52 PM 19.9 °F 8.6 °F 3.9 °F 50% 30.29 in 10.0 mi NW 10.4 mph - N/A   Clear
11:52 PM 18.0 °F 5.4 °F 3.0 °F 52% 30.30 in 10.0 mi NW 11.5 mph - N/A   Clear